�N����,����,�~����,�C��,���x,�C��,����,���ϕ���,�ő�u�ԕ���,�ő厞����,���˗�,�I�_���x,�n�����x,�ő啗���N��,DTYPE
"23/04/03","00:10",0.0,11.3,72.9,1013.8,329.0,4.9,7.8,345.6,0.00,6.7,13.1,"00:05:54",1
"23/04/03","00:20",0.0,11.2,72.8,1013.8,322.3,4.1,6.2,327.2,0.00,6.5,13.1,"00:18:16",1
"23/04/03","00:30",0.0,11.1,72.8,1013.8,323.8,3.0,5.4,313.3,0.00,6.4,13.2,"00:20:24",1
"23/04/03","00:40",0.0,10.8,73.6,1014.0,324.6,2.2,3.4,305.9,0.00,6.3,13.0,"00:30:16",1
"23/04/03","00:50",0.0,10.4,74.6,1013.8,297.4,2.0,3.4,335.5,0.00,6.1,13.2,"00:46:48",1
"23/04/03","01:00",0.0,10.1,76.0,1013.5,305.4,2.6,3.5,317.4,0.00,6.1,13.1,"00:57:36",1
"23/04/03","01:10",0.0,10.0,77.1,1013.8,307.8,3.2,5.2,314.1,0.00,6.2,13.0,"01:09:36",1
"23/04/03","01:20",0.0,10.2,77.3,1013.5,293.3,3.0,6.6,330.0,0.00,6.4,12.8,"01:13:12",1
"23/04/03","01:30",0.0,9.9,77.8,1013.5,300.5,2.2,2.8,308.3,0.00,6.3,12.9,"01:20:16",1
"23/04/03","01:40",0.0,9.8,78.6,1013.5,308.3,2.5,3.2,327.8,0.00,6.3,12.9,"01:34:00",1
"23/04/03","01:50",0.0,9.8,79.5,1013.8,312.6,2.8,4.0,319.8,0.00,6.5,12.8,"01:47:36",1
"23/04/03","02:00",0.0,10.1,79.6,1013.3,321.3,3.2,4.3,327.8,0.00,6.8,12.9,"01:55:36",1
"23/04/03","02:10",0.0,10.1,79.3,1013.3,308.4,3.4,4.7,306.4,0.00,6.7,12.7,"02:07:36",1
"23/04/03","02:20",0.0,10.2,78.8,1013.8,317.5,3.7,5.2,324.6,0.00,6.7,12.7,"02:11:36",1
"23/04/03","02:30",0.0,10.2,78.5,1013.8,319.1,3.4,5.0,327.7,0.00,6.7,12.9,"02:22:00",1
"23/04/03","02:40",0.0,10.2,78.5,1013.5,323.7,3.4,5.0,328.1,0.00,6.7,12.7,"02:30:40",1
"23/04/03","02:50",0.0,10.3,78.1,1013.5,324.3,4.5,7.0,332.2,0.00,6.7,12.7,"02:43:52",1
"23/04/03","03:00",0.0,10.5,77.1,1013.5,321.6,4.7,6.6,321.3,0.00,6.7,12.7,"02:50:16",1
"23/04/03","03:10",0.0,10.5,75.8,1013.8,324.6,5.1,8.3,319.7,0.00,6.5,12.6,"03:04:56",1
"23/04/03","03:20",0.0,10.5,75.2,1013.8,329.7,5.0,9.1,347.2,0.00,6.3,12.6,"03:12:00",1
"23/04/03","03:30",0.0,10.5,75.1,1014.0,329.9,4.7,7.8,308.5,0.00,6.3,12.6,"03:28:08",1
"23/04/03","03:40",0.0,10.3,75.5,1013.8,333.4,4.9,9.8,329.8,0.00,6.2,12.7,"03:32:00",1
"23/04/03","03:50",0.0,10.2,76.0,1013.8,329.6,4.9,8.8,334.8,0.00,6.2,12.5,"03:44:48",1
"23/04/03","04:00",0.0,10.1,76.4,1013.8,326.9,4.9,8.2,311.4,0.00,6.2,12.7,"03:54:40",1
"23/04/03","04:10",0.0,10.2,76.5,1013.8,330.5,5.5,8.3,338.2,0.00,6.3,12.5,"04:02:16",1
"23/04/03","04:20",0.0,10.1,76.7,1014.2,327.9,4.9,7.3,315.5,0.00,6.2,12.5,"04:18:24",1
"23/04/03","04:30",0.0,10.1,76.7,1014.0,321.5,4.9,8.1,318.6,0.00,6.2,12.5,"04:22:00",1
"23/04/03","04:40",0.0,10.0,77.0,1014.2,322.3,4.4,6.0,341.0,0.00,6.2,12.4,"04:37:20",1
"23/04/03","04:50",0.0,10.3,76.9,1014.2,330.8,5.0,8.5,331.9,0.00,6.5,12.5,"04:45:44",1
"23/04/03","05:00",0.0,10.2,76.7,1014.2,315.5,4.4,6.4,334.1,0.00,6.3,12.3,"04:54:56",1
"23/04/03","05:10",0.0,10.3,76.9,1014.5,323.4,4.2,8.1,331.6,0.00,6.5,12.3,"05:07:04",1
"23/04/03","05:20",0.0,10.5,76.7,1014.5,330.8,5.1,8.9,336.2,0.00,6.6,12.4,"05:12:24",1
"23/04/03","05:30",0.0,10.7,76.1,1014.5,326.4,5.5,9.3,316.9,0.00,6.7,12.2,"05:29:04",1
"23/04/03","05:40",0.0,10.7,75.5,1014.5,331.4,4.7,7.1,331.0,0.00,6.6,12.2,"05:30:32",1
"23/04/03","05:50",0.0,10.6,75.0,1015.2,330.8,4.1,8.0,325.7,0.00,6.4,12.2,"05:49:20",1
"23/04/03","06:00",0.0,10.6,74.6,1015.2,328.7,3.9,6.4,340.9,0.00,6.3,12.3,"05:51:36",1
"23/04/03","06:10",0.0,10.5,74.1,1015.4,317.3,4.5,7.9,331.0,0.00,6.1,12.3,"06:04:40",1
"23/04/03","06:20",0.0,10.5,73.8,1015.4,322.4,5.1,8.7,340.4,0.00,6.1,12.4,"06:17:52",1
"23/04/03","06:30",0.0,10.4,73.9,1015.4,319.2,4.0,7.1,336.8,0.00,6.0,12.2,"06:20:16",1
"23/04/03","06:40",0.0,10.2,74.6,1015.6,317.1,3.7,6.7,325.8,0.00,5.9,12.2,"06:35:36",1
"23/04/03","06:50",0.0,10.4,74.3,1015.6,324.4,4.2,7.2,316.8,0.00,6.1,12.2,"06:45:28",1
"23/04/03","07:00",0.0,10.0,75.1,1015.9,288.5,3.4,5.7,317.8,0.00,5.8,12.1,"06:51:12",1
"23/04/03","07:10",0.0,10.1,76.1,1016.1,312.2,2.7,5.8,323.0,0.01,6.1,12.2,"07:08:26",1
"23/04/03","07:20",0.0,10.2,76.5,1016.1,296.5,2.6,4.2,331.6,0.02,6.3,12.1,"07:16:40",1
"23/04/03","07:30",0.0,10.4,76.2,1016.4,304.9,3.1,5.6,325.5,0.02,6.4,12.2,"07:26:56",1
"23/04/03","07:40",0.0,10.9,75.2,1016.6,321.4,3.1,6.3,347.9,0.03,6.7,12.2,"07:36:32",1
"23/04/03","07:50",0.0,11.3,74.1,1016.6,319.9,3.0,4.9,346.0,0.05,6.9,12.3,"07:40:08",1
"23/04/03","08:00",0.0,11.5,73.1,1016.8,320.8,2.5,6.5,342.0,0.07,6.9,12.0,"07:53:36",1
"23/04/03","08:10",0.0,11.8,72.3,1016.8,326.3,2.3,5.5,344.2,0.09,7.0,12.1,"08:07:22",1
"23/04/03","08:20",0.0,12.1,71.2,1017.1,329.7,3.4,5.8,328.7,0.15,7.1,12.1,"08:16:18",1
"23/04/03","08:30",0.0,12.3,70.3,1017.1,330.7,4.0,6.0,343.4,0.15,7.1,12.1,"08:20:26",1
"23/04/03","08:40",0.0,12.2,69.9,1017.1,330.1,4.1,8.0,321.7,0.11,6.9,12.2,"08:38:12",1
"23/04/03","08:50",0.0,12.6,69.8,1017.3,337.4,2.3,8.0,347.2,0.12,7.3,12.0,"08:41:40",1
"23/04/03","09:00",0.0,13.5,68.4,1017.5,335.9,1.7,5.1,345.2,0.22,7.8,12.3,"08:54:04",1
"23/04/03","09:10",0.0,14.0,66.7,1017.8,354.5,1.8,4.3,339.5,0.27,7.9,12.3,"09:04:30",1
"23/04/03","09:20",0.0,14.6,64.7,1017.5,353.2,2.0,4.2,354.0,0.35,8.1,12.2,"09:12:24",1
"23/04/03","09:30",0.0,14.0,64.1,1017.3,340.5,3.1,5.9,350.3,0.27,7.4,12.4,"09:25:28",1
"23/04/03","09:40",0.0,14.1,64.6,1017.5,347.1,2.5,5.1,347.5,0.27,7.6,12.3,"09:36:14",1
"23/04/03","09:50",0.0,14.9,63.4,1017.3,350.4,3.0,6.4,344.7,0.43,8.1,12.2,"09:44:16",1
"23/04/03","10:00",0.0,15.4,61.6,1017.5,351.6,2.5,4.9,346.9,0.44,8.1,12.3,"09:56:08",1
"23/04/03","10:10",0.0,16.3,60.9,1017.5,337.8,2.1,6.2,343.3,0.50,8.8,12.4,"10:01:36",1
"23/04/03","10:20",0.0,14.9,63.1,1017.8,340.8,3.9,6.7,347.1,0.20,8.0,12.4,"10:11:44",1
"23/04/03","10:30",0.0,14.5,65.2,1018.0,343.7,3.6,6.4,336.6,0.22,8.1,12.5,"10:29:36",1
"23/04/03","10:40",0.0,14.3,66.2,1017.8,343.1,4.2,7.3,344.5,0.28,8.1,12.5,"10:36:08",1
"23/04/03","10:50",0.0,14.9,67.5,1017.8,342.1,4.7,9.8,345.5,0.44,9.0,12.5,"10:43:58",1
"23/04/03","11:00",0.0,15.4,65.7,1017.5,345.2,4.6,7.1,345.9,0.56,9.1,12.8,"10:50:40",1
"23/04/03","11:10",0.0,15.5,64.6,1017.8,342.9,4.0,7.2,339.2,0.54,8.9,12.5,"11:03:28",1
"23/04/03","11:20",0.0,15.6,64.3,1017.8,341.3,4.2,6.8,321.5,0.55,8.9,12.8,"11:19:44",1
"23/04/03","11:30",0.0,16.1,62.6,1017.3,338.4,3.7,7.1,345.4,0.56,9.0,12.8,"11:24:32",1
"23/04/03","11:40",0.0,16.3,61.6,1017.1,338.4,3.6,6.3,348.6,0.58,9.0,12.6,"11:35:20",1
"23/04/03","11:50",0.0,17.0,61.3,1017.3,324.1,2.7,5.0,343.5,0.59,9.5,13.1,"11:45:36",1
"23/04/03","12:00",0.0,17.1,57.1,1017.3,307.2,2.2,4.4,326.1,0.60,8.6,12.8,"11:58:08",1
"23/04/03","12:10",0.0,17.4,57.7,1016.8,304.6,2.3,4.7,339.3,0.59,9.0,13.0,"12:06:16",1
"23/04/03","12:20",0.0,17.7,56.1,1016.6,319.9,2.3,4.9,326.4,0.60,8.9,13.2,"12:16:00",1
"23/04/03","12:30",0.0,18.0,56.1,1016.6,299.2,2.1,4.3,344.7,0.60,9.2,13.2,"12:20:32",1
"23/04/03","12:40",0.0,18.4,56.2,1016.1,304.2,1.8,4.8,348.9,0.60,9.6,13.3,"12:30:40",1
"23/04/03","12:50",0.0,18.1,54.4,1015.9,352.3,2.5,5.1,339.1,0.60,8.8,13.4,"12:40:40",1
"23/04/03","13:00",0.0,18.5,54.9,1015.9,326.9,2.7,5.7,329.3,0.60,9.3,13.6,"12:51:28",1
"23/04/03","13:10",0.0,18.9,53.3,1015.9,325.8,2.1,4.5,348.2,0.60,9.2,13.4,"13:04:48",1
"23/04/03","13:20",0.0,19.0,52.4,1015.6,334.9,2.7,5.4,320.6,0.59,9.1,13.8,"13:14:24",1
"23/04/03","13:30",0.0,19.2,51.7,1015.4,329.6,2.7,6.3,317.1,0.58,9.1,13.7,"13:20:32",1
"23/04/03","13:40",0.0,19.3,50.8,1015.4,331.4,2.7,5.2,331.1,0.57,8.9,13.8,"13:39:44",1
"23/04/03","13:50",0.0,19.4,50.9,1015.2,330.6,3.2,5.8,344.5,0.57,9.0,13.9,"13:46:16",1
"23/04/03","14:00",0.0,19.7,50.5,1015.4,327.7,2.6,6.4,342.7,0.56,9.2,14.2,"13:59:28",1
"23/04/03","14:10",0.0,19.6,50.4,1015.2,332.4,3.4,7.2,335.9,0.55,9.1,14.4,"14:02:16",1
"23/04/03","14:20",0.0,19.6,50.8,1014.9,319.3,3.1,6.3,349.2,0.53,9.2,14.3,"14:12:40",1
"23/04/03","14:30",0.0,20.2,49.4,1014.7,352.4,2.6,5.5,342.0,0.52,9.3,14.5,"14:25:36",1
"23/04/03","14:40",0.0,19.8,49.7,1014.7,336.4,4.0,7.2,330.2,0.51,9.0,14.2,"14:36:40",1
"23/04/03","14:50",0.0,20.1,49.3,1014.7,347.3,3.4,6.7,338.8,0.49,9.2,14.6,"14:41:28",1
"23/04/03","15:00",0.0,20.1,50.5,1014.9,321.9,3.6,6.5,357.7,0.47,9.6,14.7,"14:51:44",1
"23/04/03","15:10",0.0,20.4,49.0,1014.7,337.7,3.1,5.7,347.8,0.45,9.4,14.5,"15:08:48",1
"23/04/03","15:20",0.0,20.1,50.9,1014.5,337.8,3.7,7.0,324.9,0.43,9.7,14.8,"15:10:16",1
"23/04/03","15:30",0.0,20.1,49.9,1014.9,345.7,3.1,6.6,353.2,0.40,9.4,14.7,"15:29:12",1
"23/04/03","15:40",0.0,20.0,51.1,1014.7,342.4,3.9,6.6,328.9,0.38,9.6,14.9,"15:34:40",1
"23/04/03","15:50",0.0,19.9,50.7,1014.9,340.3,4.0,6.4,337.8,0.36,9.4,15.0,"15:44:32",1
"23/04/03","16:00",0.0,19.8,50.3,1014.7,338.8,4.0,6.4,336.9,0.34,9.2,15.0,"15:59:04",1
"23/04/03","16:10",0.0,19.9,51.2,1014.7,337.4,4.1,5.9,323.4,0.32,9.6,14.9,"16:04:48",1
"23/04/03","16:20",0.0,19.5,51.3,1014.5,333.7,4.9,7.1,345.1,0.29,9.2,15.2,"16:19:20",1
"23/04/03","16:30",0.0,19.4,51.8,1014.5,335.5,4.6,7.5,322.9,0.27,9.3,14.9,"16:23:52",1
"23/04/03","16:40",0.0,19.4,51.8,1014.9,334.1,4.4,6.0,345.4,0.24,9.3,15.2,"16:39:36",1
"23/04/03","16:50",0.0,19.0,53.3,1014.9,332.4,4.9,7.2,343.8,0.21,9.3,15.1,"16:46:32",1
"23/04/03","17:00",0.0,18.8,54.5,1014.9,333.3,4.5,7.9,335.1,0.19,9.5,14.8,"16:56:56",1
"23/04/03","17:10",0.0,18.6,55.2,1015.2,341.8,3.7,6.0,323.6,0.16,9.5,15.2,"17:00:16",1
"23/04/03","17:20",0.0,18.0,55.8,1015.4,346.1,3.7,7.1,331.0,0.13,9.1,15.2,"17:13:36",1
"23/04/03","17:30",0.0,17.6,57.0,1015.4,344.4,4.5,7.8,345.6,0.11,9.0,15.1,"17:23:36",1
"23/04/03","17:40",0.0,17.0,57.8,1015.9,338.9,4.5,9.5,329.9,0.09,8.7,15.1,"17:35:22",1
"23/04/03","17:50",0.0,16.3,59.3,1015.9,345.0,4.6,8.5,331.6,0.07,8.4,15.2,"17:49:14",1
"23/04/03","18:00",0.0,16.0,61.1,1016.1,338.2,4.1,6.5,347.3,0.05,8.6,15.1,"17:52:40",1
"23/04/03","18:10",0.0,15.3,63.1,1016.1,342.4,4.1,7.4,343.9,0.03,8.4,15.3,"18:04:48",1
"23/04/03","18:20",0.0,14.5,64.9,1016.4,344.9,4.1,7.0,347.1,0.02,8.0,15.2,"18:18:34",1
"23/04/03","18:30",0.0,13.7,66.6,1016.1,346.7,4.9,7.8,10.4,0.01,7.6,15.1,"18:26:16",1
"23/04/03","18:40",0.0,13.2,67.6,1016.6,352.4,4.2,8.1,0.1,0.00,7.4,15.0,"18:32:36",1
"23/04/03","18:50",0.0,12.7,69.0,1016.6,338.6,4.9,9.1,344.0,0.00,7.2,15.1,"18:43:48",1
"23/04/03","19:00",0.0,12.3,70.0,1016.6,340.9,5.1,11.2,316.3,0.00,7.0,14.9,"18:51:40",1
"23/04/03","19:10",0.0,12.0,70.5,1017.1,342.8,4.6,8.5,336.0,0.00,6.8,14.9,"19:03:26",1
"23/04/03","19:20",0.0,11.8,71.0,1016.8,342.6,4.6,7.8,340.6,0.00,6.8,14.8,"19:12:34",1
"23/04/03","19:30",0.0,11.5,71.7,1017.5,345.0,3.9,6.5,338.9,0.00,6.6,14.9,"19:24:46",1
"23/04/03","19:40",0.0,11.4,72.2,1017.3,346.9,3.2,5.2,352.9,0.00,6.6,14.8,"19:36:44",1
"23/04/03","19:50",0.0,11.3,72.8,1017.5,339.9,4.1,9.0,337.4,0.00,6.6,14.7,"19:45:50",1
"23/04/03","20:00",0.0,11.2,73.4,1017.5,336.2,4.4,9.5,344.4,0.00,6.7,14.7,"19:58:48",1
"23/04/03","20:10",0.0,11.1,73.9,1017.5,336.4,4.6,8.0,331.8,0.00,6.7,14.4,"20:01:28",1
"23/04/03","20:20",0.0,11.1,74.3,1017.8,334.0,4.2,7.3,344.6,0.00,6.7,14.5,"20:13:12",1
"23/04/03","20:30",0.0,11.1,74.8,1018.0,333.1,4.5,6.8,319.2,0.00,6.8,14.4,"20:25:20",1
"23/04/03","20:40",0.0,11.1,74.8,1018.5,329.0,5.1,8.0,318.6,0.00,6.8,14.4,"20:34:08",1
"23/04/03","20:50",0.0,11.2,74.6,1018.5,327.1,5.2,8.0,322.0,0.00,6.9,14.2,"20:43:04",1
"23/04/03","21:00",0.0,11.1,74.6,1018.7,326.3,4.0,6.2,330.5,0.00,6.8,14.2,"20:55:12",1
"23/04/03","21:10",0.0,11.0,75.2,1018.7,334.5,3.9,6.2,336.4,0.00,6.8,14.4,"21:04:24",1
"23/04/03","21:20",0.0,11.0,75.4,1019.0,330.1,3.7,6.3,341.3,0.00,6.9,14.4,"21:10:32",1
"23/04/03","21:30",0.0,10.9,75.7,1019.2,327.1,2.8,4.4,327.0,0.00,6.8,14.2,"21:29:44",1
"23/04/03","21:40",0.0,10.8,76.1,1019.7,324.9,3.1,4.7,338.8,0.00,6.8,14.0,"21:31:52",1
"23/04/03","21:50",0.0,10.9,76.0,1019.4,325.5,4.1,6.4,339.9,0.00,6.9,14.1,"21:42:16",1
"23/04/03","22:00",0.0,10.7,76.0,1019.9,330.3,2.8,4.7,317.5,0.00,6.7,14.2,"21:53:12",1
"23/04/03","22:10",0.0,10.7,76.6,1020.1,321.5,3.1,6.0,319.9,0.00,6.8,14.0,"22:04:08",1
"23/04/03","22:20",0.0,10.8,76.9,1019.9,327.2,3.4,5.5,344.4,0.00,7.0,14.1,"22:18:16",1
"23/04/03","22:30",0.0,10.8,77.2,1019.7,327.9,3.2,5.0,329.1,0.00,7.0,14.0,"22:23:12",1
"23/04/03","22:40",0.0,10.8,77.5,1019.7,314.4,2.8,4.4,321.2,0.00,7.1,14.0,"22:39:12",1
"23/04/03","22:50",0.0,10.6,77.7,1019.4,301.0,2.2,3.6,338.4,0.00,6.9,13.7,"22:40:56",1
"23/04/03","23:00",0.0,10.4,78.1,1019.7,272.4,1.8,2.7,261.5,0.00,6.8,13.7,"22:59:36",1
"23/04/03","23:10",0.0,10.2,78.7,1019.7,289.8,2.1,3.1,312.8,0.00,6.7,13.8,"23:08:00",1
"23/04/03","23:20",0.0,9.8,79.5,1019.7,293.6,2.6,3.2,302.1,0.00,6.5,13.9,"23:16:16",1
"23/04/03","23:30",0.0,9.4,80.4,1019.4,315.0,2.1,3.1,310.9,0.00,6.2,13.7,"23:24:16",1
"23/04/03","23:40",0.0,9.1,81.4,1019.9,306.2,1.8,2.5,326.5,0.00,6.1,13.7,"23:38:08",1
"23/04/03","23:50",0.0,8.9,82.6,1019.7,302.6,2.2,2.9,314.4,0.00,6.1,13.5,"23:47:04",1
"23/04/03","24:00",0.0,8.6,83.6,1019.4,322.7,2.6,3.4,314.6,0.00,6.0,13.6,"23:54:16",1
